QPF
0.01 0.01 0.01 0.04 0.06 0.05 0.06 0.06 0.09 0.08 0.08 0.08 0.07 0.07 0.06 0.06 0.07 0.07 0.07 0.09 0.08 0.07 0.07 0.06 0.05 0.04 0.07 0.08 0.08 0.08 0.07 0.06 0.05 0.05 0.05 0.04 0.04 0.04 0.05 0.07 0.09 0.09 0.07
0.01 0.01 0.02 0.04 0.05 0.05 0.05 0.04 0.05 0.06 0.07 0.08 0.07 0.08 0.08 0.07 0.07 0.08 0.08 0.08 0.09 0.08 0.06 0.08 0.06 0.07 0.08 0.09 0.09 0.09 0.08 0.06 0.05 0.05 0.06 0.06 0.06 0.04 0.02 0.04 0.06 0.06 0.07
0.01 0.02 0.03 0.04 0.04 0.05 0.06 0.05 0.05 0.04 0.05 0.06 0.07 0.06 0.07 0.05 0.05 0.07 0.08 0.07 0.07 0.07 0.08 0.09 0.09 0.10 0.09 0.08 0.09 0.10 0.10 0.09 0.07 0.05 0.06 0.06 0.07 0.06 0.04 0.02 0.02 0.03 0.05
0.01 0.01 0.01 0.02 0.03 0.04 0.05 0.07 0.08 0.06 0.06 0.05 0.05 0.06 0.06 0.05 0.04 0.05 0.07 0.08 0.06 0.06 0.08 0.08 0.09 0.10 0.08 0.10 0.09 0.08 0.09 0.09 0.08 0.06 0.04 0.04 0.05 0.07 0.07 0.04 0.02 0.02 0.03
0.01 0.01 0.01 0.02 0.03 0.03 0.03 0.05 0.08 0.07 0.06 0.05 0.06 0.07 0.09 0.10 0.08 0.06 0.07 0.08 0.07 0.05 0.06 0.06 0.08 0.08 0.06 0.05 0.07 0.08 0.08 0.07 0.07 0.08 0.06 0.05 0.05 0.07 0.07 0.07 0.04 0.02 0.02
0.01 0.01 0.01 0.02 0.04 0.04 0.03 0.04 0.06 0.05 0.05 0.05 0.07 0.08 0.08 0.11 0.10 0.07 0.07 0.07 0.07 0.05 0.04 0.05 0.06 0.05 0.05 0.05 0.05 0.07 0.07 0.07 0.08 0.09 0.08 0.08 0.08 0.08 0.07 0.07 0.05 0.03 0.02
0.00 0.01 0.01 0.01 0.02 0.03 0.03 0.04 0.04 0.05 0.05 0.06 0.06 0.07 0.08 0.10 0.10 0.10 0.09 0.08 0.07 0.06 0.05 0.04 0.04 0.04 0.03 0.03 0.05 0.06 0.06 0.06 0.08 0.08 0.07 0.07 0.08 0.06 0.04 0.05 0.05 0.04 0.02
0.00 0.00 0.00 0.01 0.02 0.02 0.02 0.03 0.04 0.05 0.05 0.05 0.06 0.05 0.07 0.07 0.07 0.08 0.08 0.10 0.08 0.06 0.06 0.05 0.04 0.03 0.02 0.02 0.03 0.04 0.04 0.05 0.06 0.05 0.07 0.07 0.05 0.03 0.03 0.04 0.04 0.04 0.04
0.00 0.00 0.00 0.01 0.03 0.02 0.02 0.02 0.03 0.04 0.04 0.04 0.05 0.05 0.06 0.06 0.07 0.07 0.08 0.08 0.08 0.06 0.05 0.03 0.03 0.02 0.02 0.02 0.04 0.04 0.04 0.04 0.05 0.05 0.05 0.06 0.05 0.04 0.03 0.02 0.03 0.05 0.05
0.00 0.00 0.00 0.01 0.02 0.02 0.02 0.03 0.04 0.04 0.05 0.05 0.05 0.06 0.06 0.06 0.07 0.06 0.06 0.07 0.07 0.06 0.04 0.03 0.03 0.03 0.03 0.03 0.04 0.04 0.04 0.04 0.04 0.04 0.04 0.04 0.04 0.03 0.02 0.02 0.03 0.03 0.04
0.00 0.00 0.00 0.01 0.02 0.02 0.02 0.03 0.04 0.05 0.05 0.05 0.05 0.07 0.06 0.05 0.05 0.05 0.07 0.09 0.09 0.08 0.04 0.03 0.03 0.04 0.03 0.03 0.04 0.03 0.04 0.03 0.03 0.02 0.02 0.03 0.03 0.03 0.03 0.02 0.02 0.02 0.02
0.00 0.00 0.00 0.01 0.01 0.01 0.02 0.03 0.04 0.04 0.04 0.04 0.03 0.04 0.05 0.06 0.05 0.06 0.09 0.08 0.07 0.06 0.04 0.03 0.03 0.03 0.03 0.03 0.03 0.03 0.03 0.03 0.03 0.02 0.02 0.02 0.02 0.03 0.02 0.02 0.02 0.01 0.01
0.00 0.00 0.00 0.01 0.01 0.01 0.02 0.04 0.04 0.04 0.04 0.04 0.04 0.04 0.04 0.04 0.04 0.07 0.10 0.09 0.08 0.06 0.05 0.04 0.04 0.03 0.02 0.03 0.04 0.04 0.03 0.03 0.03 0.03 0.02 0.02 0.02 0.02 0.02 0.02 0.02 0.02 0.01
0.00 0.00 0.01 0.01 0.01 0.01 0.02 0.03 0.04 0.04 0.03 0.04 0.04 0.04 0.04 0.04 0.05 0.06 0.08 0.07 0.07 0.07 0.06 0.05 0.05 0.05 0.05 0.04 0.04 0.04 0.04 0.03 0.04 0.04 0.04 0.03 0.03 0.02 0.02 0.02 0.02 0.02 0.02
0.00 0.00 0.01 0.02 0.01 0.01 0.01 0.02 0.04 0.06 0.06 0.05 0.04 0.05 0.05 0.05 0.05 0.06 0.05 0.06 0.06 0.07 0.07 0.07 0.06 0.05 0.05 0.06 0.05 0.05 0.05 0.05 0.04 0.03 0.03 0.02 0.02 0.02 0.02 0.02 0.02 0.02 0.02
0.00 0.00 0.01 0.02 0.02 0.02 0.02 0.02 0.03 0.05 0.07 0.07 0.09 0.08 0.07 0.06 0.05 0.04 0.05 0.06 0.07 0.07 0.06 0.07 0.06 0.05 0.04 0.05 0.07 0.08 0.07 0.08 0.07 0.05 0.03 0.02 0.01 0.02 0.02 0.02 0.02 0.02 0.03
0.00 0.01 0.03 0.04 0.03 0.02 0.03 0.03 0.03 0.03 0.05 0.07 0.07 0.07 0.07 0.08 0.06 0.05 0.06 0.07 0.07 0.07 0.06 0.06 0.06 0.06 0.05 0.04 0.05 0.05 0.07 0.08 0.08 0.07 0.05 0.03 0.02 0.03 0.03 0.03 0.03 0.02 0.03
0.01 0.01 0.04 0.07 0.06 0.04 0.04 0.04 0.03 0.04 0.05 0.06 0.06 0.06 0.06 0.08 0.08 0.07 0.06 0.06 0.07 0.07 0.09 0.07 0.06 0.06 0.06 0.04 0.03 0.03 0.03 0.04 0.04 0.04 0.04 0.04 0.03 0.02 0.02 0.03 0.03 0.04 0.04
0.02 0.02 0.02 0.06 0.09 0.07 0.04 0.04 0.04 0.03 0.04 0.04 0.04 0.04 0.05 0.05 0.06 0.06 0.06 0.06 0.07 0.08 0.08 0.06 0.05 0.05 0.04 0.03 0.04 0.04 0.02 0.03 0.03 0.03 0.03 0.04 0.04 0.03 0.02 0.02 0.04 0.04 0.05
0.02 0.02 0.02 0.03 0.05 0.05 0.03 0.03 0.03 0.03 0.02 0.02 0.02 0.03 0.04 0.05 0.04 0.05 0.06 0.06 0.07 0.07 0.06 0.05 0.04 0.04 0.03 0.02 0.03 0.03 0.02 0.03 0.03 0.03 0.03 0.04 0.04 0.03 0.02 0.02 0.03 0.03 0.03
0.01 0.01 0.01 0.01 0.02 0.03 0.03 0.03 0.03 0.04 0.04 0.04 0.04 0.03 0.05 0.05 0.06 0.07 0.06 0.06 0.06 0.06 0.05 0.04 0.03 0.03 0.02 0.02 0.02 0.02 0.02 0.03 0.04 0.04 0.05 0.05 0.04 0.04 0.03 0.02 0.02 0.02 0.01
0.01 0.02 0.02 0.02 0.02 0.03 0.03 0.03 0.03 0.04 0.04 0.04 0.04 0.04 0.04 0.05 0.05 0.06 0.05 0.05 0.05 0.04 0.04 0.04 0.04 0.04 0.04 0.04 0.04 0.05 0.05 0.04 0.04 0.05 0.04 0.04 0.06 0.05 0.05 0.03 0.02 0.01 0.01
0.01 0.01 0.03 0.04 0.04 0.04 0.05 0.04 0.03 0.03 0.03 0.03 0.03 0.03 0.04 0.06 0.07 0.05 0.05 0.04 0.03 0.03 0.03 0.03 0.04 0.04 0.05 0.04 0.04 0.05 0.06 0.07 0.05 0.04 0.04 0.04 0.04 0.04 0.03 0.02 0.01 0.01 0.01
0.02 0.02 0.02 0.03 0.03 0.03 0.05 0.08 0.07 0.05 0.05 0.05 0.05 0.05 0.04 0.03 0.04 0.04 0.04 0.03 0.03 0.02 0.02 0.02 0.03 0.03 0.03 0.03 0.03 0.04 0.04 0.04 0.04 0.03 0.03 0.02 0.02 0.01 0.01 0.01 0.01 0.00 0.00
0.02 0.02 0.03 0.05 0.03 0.02 0.03 0.05 0.09 0.06 0.05 0.05 0.04 0.03 0.03 0.03 0.03 0.03 0.03 0.04 0.03 0.03 0.03 0.04 0.04 0.03 0.04 0.04 0.04 0.03 0.03 0.03 0.03 0.02 0.02 0.02 0.01 0.01 0.01 0.01 0.01 0.01 0.01
0.01 0.02 0.02 0.03 0.03 0.02 0.02 0.03 0.05 0.06 0.06 0.05 0.04 0.04 0.04 0.04 0.05 0.05 0.05 0.05 0.04 0.03 0.03 0.03 0.04 0.04 0.05 0.05 0.04 0.04 0.04 0.03 0.03 0.04 0.04 0.04 0.03 0.02 0.02 0.01 0.01 0.01 0.01
MSLP
1007.63 1007.98 1008.32 1008.63 1008.91 1009.19 1009.49 1009.83 1010.23 1010.70 1011.22 1011.78 1012.34 1012.88 1013.37 1013.81 1014.19 1014.52 1014.80 1015.05 1015.29 1015.52 1015.74 1015.97 1016.21 1016.46 1016.71 1016.97 1017.22 1017.46 1017.67 1017.83 1017.94 1017.98 1017.97 1017.90 1017.81 1017.70 1017.60 1017.55 1017.54 1017.61 1017.73
1007.31 1007.70 1008.06 1008.36 1008.62 1008.86 1009.11 1009.41 1009.80 1010.27 1010.84 1011.46 1012.11 1012.74 1013.33 1013.84 1014.28 1014.64 1014.93 1015.18 1015.41 1015.63 1015.84 1016.07 1016.31 1016.56 1016.81 1017.05 1017.28 1017.49 1017.66 1017.80 1017.89 1017.92 1017.92 1017.87 1017.80 1017.72 1017.64 1017.60 1017.59 1017.64 1017.73
1006.95 1007.40 1007.80 1008.13 1008.38 1008.59 1008.80 1009.07 1009.43 1009.91 1010.50 1011.17 1011.90 1012.63 1013.31 1013.91 1014.42 1014.82 1015.14 1015.40 1015.62 1015.82 1016.03 1016.24 1016.46 1016.69 1016.92 1017.13 1017.32 1017.49 1017.62 1017.71 1017.77 1017.81 1017.81 1017.79 1017.76 1017.73 1017.70 1017.68 1017.69 1017.73 1017.80
1006.57 1007.10 1007.57 1007.94 1008.21 1008.41 1008.59 1008.83 1009.16 1009.63 1010.23 1010.95 1011.74 1012.55 1013.32 1014.00 1014.58 1015.03 1015.39 1015.66 1015.88 1016.08 1016.27 1016.46 1016.66 1016.86 1017.05 1017.22 1017.37 1017.48 1017.56 1017.62 1017.65 1017.67 1017.69 1017.70 1017.71 1017.72 1017.74 1017.76 1017.78 1017.81 1017.86
1006.20 1006.82 1007.37 1007.81 1008.11 1008.33 1008.50 1008.71 1009.02 1009.46 1010.06 1010.80 1011.63 1012.49 1013.32 1014.08 1014.71 1015.22 1015.62 1015.91 1016.14 1016.33 1016.51 1016.69 1016.87 1017.04 1017.19 1017.32 1017.42 1017.49 1017.52 1017.54 1017.54 1017.55 1017.57 1017.60 1017.64 1017.69 1017.74 1017.78 1017.81 1017.83 1017.85
1005.87 1006.58 1007.23 1007.74 1008.11 1008.36 1008.53 1008.72 1009.00 1009.41 1009.98 1010.70 1011.53 1012.41 1013.29 1014.08 1014.77 1015.33 1015.75 1016.08 1016.33 1016.52 1016.70 1016.87 1017.03 1017.18 1017.31 1017.41 1017.47 1017.50 1017.50 1017.48 1017.46 1017.45 1017.46 1017.50 1017.55 1017.61 1017.68 1017.73 1017.75 1017.75 1017.74
1005.60 1006.41 1007.15 1007.75 1008.18 1008.47 1008.66 1008.84 1009.08 1009.44 1009.96 1010.64 1011.44 1012.30 1013.17 1013.99 1014.70 1015.29 1015.75 1016.10 1016.37 1016.58 1016.77 1016.94 1017.10 1017.25 1017.37 1017.45 1017.50 1017.51 1017.48 1017.44 1017.40 1017.37 1017.37 1017.40 1017.45 1017.50 1017.56 1017.60 1017.61 1017.58 1017.53
1005.42 1006.29 1007.11 1007.79 1008.30 1008.63 1008.84 1009.01 1009.21 1009.52 1009.98 1010.58 1011.32 1012.13 1012.97 1013.77 1014.48 1015.08 1015.56 1015.94 1016.24 1016.48 1016.68 1016.87 1017.04 1017.20 1017.33 1017.41 1017.46 1017.46 1017.43 1017.38 1017.33 1017.29 1017.28 1017.29 1017.33 1017.37 1017.41 1017.43 1017.41 1017.36 1017.28
1005.31 1006.23 1007.10 1007.84 1008.40 1008.77 1009.01 1009.17 1009.35 1009.61 1009.99 1010.51 1011.16 1011.90 1012.67 1013.43 1014.11 1014.71 1015.20 1015.60 1015.92 1016.18 1016.42 1016.63 1016.83 1017.00 1017.15 1017.26 1017.32 1017.34 1017.32 1017.28 1017.23 1017.19 1017.17 1017.17 1017.19 1017.23 1017.25 1017.26 1017.23 1017.16 1017.05
1005.25 1006.18 1007.07 1007.83 1008.43 1008.84 1009.10 1009.27 1009.43 1009.64 1009.96 1010.40 1010.96 1011.61 1012.30 1012.99 1013.63 1014.20 1014.68 1015.09 1015.43 1015.72 1015.99 1016.23 1016.45 1016.66 1016.83 1016.97 1017.05 1017.10 1017.10 1017.08 1017.05 1017.02 1017.01 1017.02 1017.05 1017.08 1017.11 1017.11 1017.08 1017.02 1016.92
1005.22 1006.11 1006.97 1007.74 1008.34 1008.77 1009.06 1009.25 1009.40 1009.59 1009.86 1010.23 1010.71 1011.26 1011.87 1012.48 1013.07 1013.60 1014.06 1014.47 1014.82 1015.13 1015.42 1015.69 1015.94 1016.17 1016.37 1016.53 1016.65 1016.72 1016.76 1016.77 1016.77 1016.77 1016.79 1016.82 1016.87 1016.92 1016.97 1017.00 1016.99 1016.95 1016.88
1005.20 1006.01 1006.82 1007.54 1008.13 1008.57 1008.87 1009.08 1009.26 1009.44 1009.69 1010.02 1010.42 1010.90 1011.43 1011.96 1012.48 1012.96 1013.39 1013.78 1014.13 1014.45 1014.76 1015.05 1015.32 1015.57 1015.79 1015.97 1016.12 1016.22 1016.29 1016.34 1016.37 1016.41 1016.47 1016.53 1016.62 1016.71 1016.79 1016.86 1016.91 1016.92 1016.89
1005.22 1005.93 1006.63 1007.28 1007.82 1008.25 1008.57 1008.81 1009.01 1009.22 1009.47 1009.77 1010.13 1010.54 1010.99 1011.45 1011.89 1012.31 1012.70 1013.07 1013.41 1013.73 1014.04 1014.34 1014.62 1014.88 1015.12 1015.32 1015.48 1015.61 1015.71 1015.79 1015.86 1015.94 1016.03 1016.14 1016.27 1016.40 1016.53 1016.66 1016.76 1016.82 1016.86
1005.32 1005.89 1006.48 1007.03 1007.50 1007.90 1008.22 1008.49 1008.73 1008.97 1009.23 1009.52 1009.85 1010.21 1010.58 1010.96 1011.33 1011.68 1012.02 1012.35 1012.66 1012.97 1013.28 1013.58 1013.87 1014.14 1014.38 1014.60 1014.77 1014.91 1015.03 1015.14 1015.24 1015.35 1015.48 1015.62 1015.78 1015.96 1016.14 1016.30 1016.46 1016.58 1016.68
1005.57 1006.01 1006.45 1006.88 1007.27 1007.62 1007.93 1008.21 1008.48 1008.75 1009.03 1009.32 1009.61 1009.92 1010.22 1010.51 1010.80 1011.07 1011.35 1011.62 1011.91 1012.20 1012.50 1012.80 1013.09 1013.36 1013.61 1013.82 1014.00 1014.15 1014.28 1014.40 1014.52 1014.66 1014.81 1014.98 1015.16 1015.36 1015.57 1015.77 1015.96 1016.12 1016.27
1006.03 1006.34 1006.65 1006.95 1007.24 1007.52 1007.81 1008.09 1008.37 1008.65 1008.93 1009.20 1009.46 1009.70 1009.92 1010.12 1010.30 1010.49 1010.69 1010.90 1011.14 1011.40 1011.68 1011.97 1012.26 1012.53 1012.78 1013.00 1013.18 1013.34 1013.48 1013.61 1013.74 1013.88 1014.04 1014.22 1014.42 1014.62 1014.84 1015.05 1015.25 1015.44 1015.61
1006.77 1006.95 1007.13 1007.31 1007.50 1007.71 1007.95 1008.20 1008.47 1008.74 1009.00 1009.23 1009.42 1009.58 1009.70 1009.78 1009.86 1009.94 1010.05 1010.19 1010.37 1010.59 1010.84 1011.12 1011.40 1011.67 1011.91 1012.13 1012.31 1012.47 1012.61 1012.75 1012.89 1013.04 1013.21 1013.39 1013.58 1013.78 1013.99 1014.19 1014.38 1014.57 1014.75
1007.77 1007.86 1007.93 1008.00 1008.10 1008.23 1008.41 1008.61 1008.84 1009.07 1009.27 1009.43 1009.53 1009.58 1009.58 1009.54 1009.49 1009.46 1009.46 1009.51 1009.61 1009.78 1009.99 1010.23 1010.49 1010.74 1010.97 1011.18 1011.36 1011.52 1011.67 1011.82 1011.97 1012.13 1012.31 1012.50 1012.69 1012.89 1013.08 1013.26 1013.44 1013.60 1013.77
1008.99 1009.02 1009.01 1009.00 1009.01 1009.07 1009.17 1009.31 1009.47 1009.63 1009.75 1009.81 1009.81 1009.73 1009.60 1009.42 1009.24 1009.07 1008.95 1008.90 1008.92 1009.00 1009.15 1009.34 1009.55 1009.77 1009.97 1010.15 1010.32 1010.47 1010.62 1010.78 1010.95 1011.14 1011.34 1011.55 1011.76 1011.97 1012.16 1012.33 1012.49 1012.64 1012.78
1010.33 1010.33 1010.27 1010.20 1010.15 1010.14 1010.18 1010.25 1010.33 1010.39 1010.41 1010.36 1010.24 1010.03 1009.76 1009.45 1009.13 1008.84 1008.60 1008.42 1008.33 1008.32 1008.37 1008.48 1008.61 1008.76 1008.90 1009.04 1009.17 1009.30 1009.45 1009.61 1009.81 1010.03 1010.27 1010.53 1010.78 1011.02 1011.24 1011.42 1011.58 1011.71 1011.83
1011.67 1011.66 1011.59 1011.50 1011.41 1011.35 1011.32 1011.31 1011.31 1011.28 1011.20 1011.04 1010.80 1010.48 1010.09 1009.66 1009.22 1008.80 1008.44 1008.14 1007.93 1007.80 1007.73 1007.71 1007.73 1007.77 1007.81 1007.86 1007.92 1008.01 1008.13 1008.30 1008.52 1008.78 1009.08 1009.39 1009.71 1010.01 1010.28 1010.50 1010.68 1010.81 1010.93
1012.90 1012.91 1012.85 1012.76 1012.65 1012.56 1012.48 1012.41 1012.33 1012.22 1012.05 1011.80 1011.47 1011.05 1010.57 1010.05 1009.51 1009.00 1008.53 1008.12 1007.78 1007.51 1007.29 1007.12 1006.98 1006.86 1006.77 1006.69 1006.65 1006.66 1006.73 1006.87 1007.10 1007.39 1007.74 1008.12 1008.51 1008.89 1009.22 1009.49 1009.71 1009.87 1009.98
1013.95 1013.99 1013.96 1013.89 1013.78 1013.67 1013.57 1013.45 1013.31 1013.13 1012.89 1012.58 1012.18 1011.72 1011.18 1010.61 1010.02 1009.44 1008.89 1008.39 1007.93 1007.52 1007.14 1006.79 1006.47 1006.16 1005.88 1005.64 1005.45 1005.34 1005.33 1005.42 1005.62 1005.92 1006.30 1006.73 1007.18 1007.61 1008.01 1008.34 1008.59 1008.78 1008.89
1014.80 1014.88 1014.88 1014.83 1014.74 1014.63 1014.50 1014.36 1014.18 1013.95 1013.67 1013.33 1012.92 1012.44 1011.90 1011.33 1010.73 1010.13 1009.54 1008.96 1008.41 1007.86 1007.33 1006.80 1006.27 1005.76 1005.28 1004.85 1004.49 1004.23 1004.09 1004.09 1004.23 1004.49 1004.85 1005.29 1005.76 1006.22 1006.64 1007.00 1007.28 1007.47 1007.59
1015.47 1015.59 1015.63 1015.61 1015.53 1015.43 1015.29 1015.12 1014.91 1014.67 1014.37 1014.03 1013.63 1013.18 1012.69 1012.16 1011.60 1011.02 1010.43 1009.82 1009.20 1008.56 1007.89 1007.20 1006.49 1005.78 1005.10 1004.47 1003.92 1003.49 1003.21 1003.08 1003.11 1003.29 1003.58 1003.96 1004.39 1004.82 1005.21 1005.54 1005.79 1005.96 1006.06
1016.05 1016.19 1016.26 1016.26 1016.20 1016.09 1015.94 1015.75 1015.53 1015.28 1014.99 1014.67 1014.31 1013.92 1013.50 1013.05 1012.56 1012.05 1011.50 1010.91 1010.27 1009.57 1008.81 1008.00 1007.15 1006.28 1005.43 1004.62 1003.91 1003.31 1002.87 1002.59 1002.48 1002.53 1002.70 1002.96 1003.27 1003.59 1003.88 1004.12 1004.28 1004.38 1004.41
Thickness
5789 5786 5781 5778 5773 5769 5764 5761 5758 5756 5754 5752 5750 5747 5746 5747 5746 5745 5743 5741 5740 5740 5739 5740 5738 5738 5738 5737 5737 5736 5734 5734 5735 5734 5732 5734 5736 5735 5734 5734 5733 5732 5729
5786 5783 5779 5776 5772 5767 5763 5760 5758 5756 5754 5752 5750 5748 5747 5746 5745 5744 5741 5740 5739 5738 5739 5738 5738 5737 5735 5734 5734 5732 5733 5734 5734 5732 5730 5727 5728 5731 5736 5734 5732 5731 5729
5786 5782 5778 5776 5773 5768 5764 5762 5759 5756 5753 5751 5749 5746 5743 5742 5742 5741 5740 5739 5738 5737 5737 5736 5737 5735 5735 5734 5732 5732 5730 5730 5732 5734 5730 5725 5724 5727 5731 5731 5732 5730 5729
5790 5784 5780 5776 5774 5771 5767 5763 5760 5756 5753 5751 5749 5745 5742 5740 5742 5741 5741 5739 5737 5736 5735 5735 5734 5734 5735 5733 5732 5733 5731 5729 5729 5730 5731 5730 5729 5725 5724 5728 5731 5729 5727
5793 5788 5784 5779 5777 5774 5769 5764 5760 5756 5754 5752 5749 5746 5745 5743 5743 5741 5739 5737 5736 5735 5735 5734 5733 5733 5733 5732 5731 5730 5730 5730 5730 5730 5730 5728 5728 5729 5725 5722 5725 5727 5729
5794 5790 5787 5782 5777 5775 5771 5766 5760 5756 5754 5752 5750 5747 5745 5743 5741 5738 5737 5736 5736 5735 5734 5733 5732 5731 5732 5730 5730 5729 5728 5728 5728 5728 5729 5728 5727 5727 5727 5724 5723 5724 5727
5794 5789 5785 5781 5777 5773 5770 5766 5761 5756 5755 5752 5750 5748 5746 5743 5740 5738 5737 5736 5736 5735 5733 5733 5731 5731 5730 5729 5729 5727 5728 5727 5725 5725 5727 5729 5729 5730 5729 5726 5725 5724 5726
5793 5789 5786 5781 5778 5774 5769 5765 5761 5756 5754 5752 5750 5749 5747 5745 5743 5740 5740 5737 5737 5736 5734 5732 5730 5730 5729 5729 5727 5728 5727 5726 5725 5726 5725 5726 5729 5730 5729 5727 5724 5721 5722
5790 5788 5786 5782 5778 5774 5770 5766 5761 5757 5754 5752 5749 5747 5746 5745 5744 5741 5739 5738 5736 5735 5733 5731 5729 5729 5729 5728 5726 5727 5725 5725 5725 5726 5724 5725 5728 5728 5728 5728 5726 5721 5717
5787 5786 5784 5781 5778 5774 5770 5766 5762 5758 5755 5752 5749 5748 5746 5745 5742 5741 5739 5738 5736 5734 5732 5730 5729 5728 5727 5726 5725 5725 5725 5724 5723 5723 5723 5723 5726 5727 5726 5725 5725 5723 5719
5785 5783 5782 5779 5776 5773 5769 5764 5761 5757 5754 5751 5749 5747 5746 5744 5741 5739 5738 5736 5734 5732 5731 5730 5728 5727 5726 5726 5724 5726 5724 5723 5723 5723 5722 5721 5721 5723 5724 5723 5723 5721 5719
5783 5781 5779 5775 5772 5770 5767 5763 5760 5757 5754 5752 5749 5747 5745 5743 5740 5738 5737 5735 5733 5732 5730 5729 5727 5726 5726 5725 5724 5724 5724 5723 5722 5721 5720 5720 5720 5718 5720 5720 5720 5718 5716
5777 5776 5773 5771 5769 5767 5765 5763 5760 5757 5754 5751 5748 5745 5744 5741 5739 5738 5736 5735 5733 5731 5730 5728 5726 5726 5725 5723 5723 5723 5723 5722 5721 5720 5718 5718 5717 5715 5717 5715 5716 5716 5716
5771 5770 5768 5766 5766 5764 5762 5761 5758 5756 5753 5750 5747 5744 5743 5741 5739 5737 5736 5734 5732 5731 5729 5727 5726 5725 5724 5723 5722 5721 5720 5720 5719 5718 5717 5717 5716 5714 5713 5712 5711 5711 5711
5767 5766 5764 5763 5762 5761 5759 5757 5756 5754 5751 5747 5745 5743 5742 5740 5738 5736 5734 5733 5731 5730 5728 5726 5725 5724 5723 5723 5721 5719 5718 5717 5716 5716 5715 5715 5714 5711 5710 5712 5711 5709 5708
5762 5763 5762 5760 5759 5757 5756 5754 5752 5750 5748 5745 5743 5742 5740 5738 5736 5735 5733 5731 5729 5728 5726 5725 5724 5723 5724 5721 5718 5717 5717 5715 5714 5713 5713 5713 5710 5707 5704 5704 5703 5702 5703
5759 5759 5759 5758 5756 5755 5753 5750 5749 5747 5744 5742 5741 5739 5737 5735 5734 5733 5732 5729 5728 5726 5724 5723 5723 5722 5720 5717 5714 5712 5713 5713 5713 5712 5711 5713 5713 5707 5707 5702 5698 5698 5696
5755 5755 5756 5755 5755 5753 5751 5749 5747 5743 5741 5739 5738 5737 5735 5733 5732 5730 5729 5727 5726 5724 5722 5722 5721 5719 5718 5713 5711 5709 5710 5712 5711 5711 5710 5709 5709 5708 5704 5703 5702 5701 5699
5751 5752 5753 5753 5751 5749 5747 5744 5742 5740 5738 5737 5736 5735 5732 5730 5728 5726 5725 5724 5723 5721 5720 5720 5719 5717 5715 5711 5708 5706 5709 5709 5709 5709 5709 5707 5705 5701 5698 5697 5697 5696 5695
5747 5747 5749 5748 5745 5743 5742 5739 5737 5735 5734 5734 5734 5733 5730 5728 5726 5724 5723 5722 5720 5719 5718 5717 5717 5716 5714 5710 5706 5703 5708 5708 5708 5707 5706 5702 5700 5696 5692 5693 5692 5689 5689
5740 5741 5741 5740 5739 5738 5736 5734 5733 5732 5732 5732 5731 5729 5727 5725 5724 5722 5720 5719 5718 5716 5715 5714 5714 5713 5713 5708 5704 5701 5705 5706 5705 5705 5704 5702 5694 5690 5687 5686 5687 5685 5683
5733 5734 5733 5733 5733 5732 5731 5729 5728 5729 5729 5728 5726 5725 5723 5722 5721 5718 5716 5716 5714 5712 5711 5710 5710 5711 5710 5707 5702 5699 5698 5699 5700 5700 5700 5697 5689 5684 5681 5679 5679 5677 5674
5726 5727 5727 5725 5725 5726 5726 5724 5724 5725 5725 5724 5722 5720 5719 5718 5717 5714 5713 5711 5710 5710 5710 5709 5708 5708 5707 5704 5699 5695 5693 5691 5692 5694 5690 5687 5682 5678 5675 5672 5671 5669 5670
5717 5719 5720 5718 5717 5718 5719 5720 5720 5721 5720 5718 5717 5715 5714 5712 5712 5711 5710 5709 5708 5708 5707 5706 5705 5704 5703 5701 5698 5694 5689 5685 5684 5684 5681 5677 5674 5672 5670 5669 5666 5664 5665
5708 5710 5710 5710 5710 5712 5712 5714 5715 5716 5715 5714 5712 5711 5711 5709 5706 5703 5700 5701 5699 5699 5699 5700 5700 5698 5696 5693 5690 5691 5689 5687 5684 5681 5677 5675 5673 5670 5667 5665 5664 5662 5659
5699 5700 5701 5703 5704 5705 5705 5707 5709 5710 5709 5708 5707 5707 5706 5703 5700 5696 5692 5686 5688 5686 5686 5686 5688 5687 5684 5681 5679 5677 5675 5673 5672 5671 5670 5667 5665 5663 5661 5659 5656 5654 5651